Location: Doverdale
(52.2833°N, 2.2000°W)
Time: 03:38:33
(UTC+00:00)

CZ-2C R/B - Pass Details

Date: 29 October 2020
Orbit: 703 x 909 km, 98.1° (Epoch: 27 November)

Event Time Altitude Azimuth Distance (km) Brightness Sun altitude
Rises 17:37:40 0° 135° (SE) 3,515 6.1 -8.6°
Reaches altitude 10° 17:40:16 10° 127° (SE) 2,564 5.3 -9.0°
Maximum altitude 17:45:26 36° 63° (ENE) 1,357 3.8 -9.8°
Drops below altitude 10° 17:50:26 10° 359° (N) 2,482 5.6 -10.5°
Sets 17:52:54 0° 351° (N) 3,390 6.4 -10.9°
